EDRS-C

Last updated on Fri Jun 13 2025 00:02:48 GMT+0000 (Coordinated Universal Time)

1 44475U 19049A 25161.89562379 -.00000064 00000+0 00000+0 0 9990 2 44475 0.0814 157.5919 0023708 17.6385 184.7997 1.01438138 21463
UTC large
Height (km)
Speed (km/s)
/
Latitude / Longitude
Inclination (degrees)
Orbital Period (minutes)
Azimuth
Elevation
Range (km)
Doppler Factor

Next 0 passes for location: London (51.5072 / 0.1276)

Sorry there are no passes over London.